Dayton, OH

4:59 AM EDT on August 21, 2017 (GMT -0400)
Cox-Dayton International

Weather History for KDAY - November, 2013

Change the Weather History Date:

Monday, November 18, 2013

  Actual Average Record
Temperature  
Mean Temperature 42 °F 42 °F  
Max Temperature 50 °F 50 °F 75 °F (1930)
Min Temperature 34 °F 34 °F 10 °F (2014)
Degree Days  
Heating Degree Days 23 23  
Month to date heating degree days 357 351  
Since 1 July heating degree days 744 798  
Cooling Degree Days 0 0  
Month to date cooling degree days 0 0  
Year to date cooling degree days 1062 891  
Moisture  
Dew Point 33 °F    
Average Humidity 66    
Maximum Humidity 82    
Minimum Humidity 50    
Precipitation  
Precipitation 0.00 in 0.12 in 2.94 in (1938)
Month to date precipitation 1.24 1.97  
Year to date precipitation 31.59 36.51  
Snow  
Snow 0.00 in 0.00 in 2.70 in (1984)
Month to date snowfall 0.9 0.2  
Since 1 July snowfall 1.9 0.6  
Since 1 September snowfall 1.9 0.6  
Snow Depth 0.00 in    
Sea Level Pressure  
Sea Level Pressure 29.99 in    
Wind  
Wind Speed 16 mph (West)    
Max Wind Speed 29 mph    
Max Gust Speed 36 mph    
Visibility 10 miles    
Events      
T = Trace of Precipitation, MM = Missing Value Source: NWS Daily Summary

Daily Weather History Graph

Daily Weather History Graph

Search for Another Location

Airport or City:

Trip Planner

Search our weather history database for the weather conditions in past years. The results will help you decide how hot, cold, wet, or windy it might be!

Date:

Astronomy

Nov. 18, 2013 Rise Set
Actual Time 7:25 AM EST 5:18 PM EST
Civil Twilight 6:56 AM EST 5:47 PM EST
Nautical Twilight 6:23 AM EST 6:20 PM EST
Astronomical Twilight 5:51 AM EST 6:52 PM EST
Moon 6:20 PM EST (11/18) 8:13 AM EST (11/18)
Length of Visible Light 10h 51m
Length of Day
9h 52m
Full, 99% of the Moon is Illuminated
Nov 18
Full
Nov 25
Last Quarter
Dec 2
New
Dec 9
First Quarter
Dec 17
Full

Hourly Weather History & Observations

Time (EST) Temp. Windchill Dew Point Humidity Pressure Visibility Wind Dir Wind Speed Gust Speed Precip Events Conditions
12:56 AM 48.0 °F - 39.0 °F 71% 29.79 in 10.0 mi West 16.1 mph 27.6 mph N/A   Clear
1:56 AM 46.9 °F - 39.9 °F 77% 29.81 in 10.0 mi West 18.4 mph 24.2 mph N/A   Clear
2:56 AM 46.0 °F 38.3 °F 39.0 °F 76% 29.84 in 10.0 mi West 20.7 mph 27.6 mph N/A   Clear
3:56 AM 44.1 °F 36.5 °F 37.0 °F 76% 29.86 in 10.0 mi West 17.3 mph - N/A   Clear
4:56 AM 43.0 °F 35.7 °F 36.0 °F 76% 29.88 in 10.0 mi West 15.0 mph - N/A   Clear
5:56 AM 42.1 °F 34.5 °F 35.1 °F 76% 29.90 in 10.0 mi West 15.0 mph - N/A   Clear
6:56 AM 41.0 °F 33.9 °F 35.1 °F 79% 29.90 in 10.0 mi WSW 12.7 mph - N/A   Clear
7:56 AM 42.1 °F 34.2 °F 36.0 °F 79% 29.91 in 10.0 mi WSW 16.1 mph - N/A   Clear
8:56 AM 44.1 °F 36.5 °F 37.0 °F 76% 29.93 in 10.0 mi WSW 17.3 mph - N/A   Partly Cloudy
9:56 AM 46.0 °F 38.0 °F 36.0 °F 68% 29.94 in 10.0 mi West 21.9 mph 29.9 mph N/A   Partly Cloudy
10:56 AM 48.0 °F - 33.1 °F 56% 29.96 in 10.0 mi West 23.0 mph 32.2 mph N/A   Partly Cloudy
11:56 AM 48.9 °F - 33.1 °F 54% 29.97 in 10.0 mi West 23.0 mph 29.9 mph N/A   Partly Cloudy
12:56 PM 48.9 °F - 30.9 °F 50% 29.97 in 10.0 mi West 28.8 mph 34.5 mph N/A   Scattered Clouds
1:56 PM 48.9 °F - 32.0 °F 52% 29.99 in 10.0 mi WNW 18.4 mph 29.9 mph N/A   Mostly Cloudy
2:56 PM 50.0 °F - 32.0 °F 50% 30.00 in 10.0 mi West 18.4 mph 29.9 mph N/A   Mostly Cloudy
3:56 PM 46.9 °F - 30.0 °F 52% 30.03 in 10.0 mi West 18.4 mph - N/A   Scattered Clouds
4:56 PM 46.0 °F 39.9 °F 30.0 °F 54% 30.07 in 10.0 mi WNW 13.8 mph 23.0 mph N/A   Mostly Cloudy
5:56 PM 44.1 °F 37.1 °F 28.9 °F 55% 30.10 in 10.0 mi WNW 15.0 mph 21.9 mph N/A   Mostly Cloudy
6:56 PM 42.1 °F 36.1 °F 28.9 °F 60% 30.13 in 10.0 mi WNW 10.4 mph - N/A   Partly Cloudy
7:56 PM 39.9 °F 33.9 °F 30.0 °F 68% 30.14 in 10.0 mi WNW 9.2 mph - N/A   Clear
8:56 PM 37.9 °F 32.1 °F 30.0 °F 73% 30.16 in 10.0 mi WNW 8.1 mph - N/A   Partly Cloudy
9:56 PM 36.0 °F 32.1 °F 30.0 °F 79% 30.17 in 10.0 mi WNW 4.6 mph - N/A   Scattered Clouds
10:56 PM 36.0 °F 30.3 °F 28.9 °F 76% 30.19 in 10.0 mi NW 6.9 mph - N/A   Scattered Clouds
11:56 PM 34.0 °F 29.8 °F 28.0 °F 79% 30.20 in 10.0 mi NW 4.6 mph - N/A   Clear